Change the Weather History Date:

Sunday, August 24, 2014

  Actual Average (KTUL) Record (KTUL)
Temperature  
Mean Temperature 84 °F 81 °F  
Max Temperature 102 °F 92 °F 108 °F (2011)
Min Temperature 69 °F 70 °F 53 °F (1920)
Cooling Degree Days 20 16  
Month to date cooling degree days 427  
Year to date cooling degree days 1595  
Since 1 June cooling degree days 1361  
Growing Degree Days 34 (Base 50)    
Moisture  
Dew Point 67 °F    
Average Humidity 56    
Maximum Humidity 93    
Minimum Humidity 30    
Precipitation  
Precipitation 0.00 in 0.10 in 2.23 in (1911)
Month to date precipitation 2.16  
Year to date precipitation 26.74  
Sea Level Pressure  
Sea Level Pressure 29.91 in    
Wind  
Wind Speed 6 mph (South)    
Max Wind Speed 13 mph    
Max Gust Speed 20 mph    
Visibility 10 miles    
Events      
T = Trace of Precipitation, MM = Missing Value Source: NWS Daily Summary

Daily Weather History Graph

Daily Weather History Graph

Search for Another Location

Airport or City:

Trip Planner

Search our weather history database for the weather conditions in past years. The results will help you decide how hot, cold, wet, or windy it might be!

Date:

Astronomy

Aug. 24, 2014 Rise Set
Actual Time 6:49 AM CDT 8:02 PM CDT
Civil Twilight 6:22 AM CDT 8:29 PM CDT
Nautical Twilight 5:51 AM CDT 9:00 PM CDT
Astronomical Twilight 5:17 AM CDT 9:33 PM CDT
Moon 6:00 AM CDT (8/24) 7:22 PM CDT (8/24)
Length of Visible Light 14h 06m
Length of Day
13h 13m
Waning Crescent, 1% of the Moon is Illuminated
Aug 24
Waning Crescent
Aug 25
New
Sep 2
First Quarter
Sep 8
Full
Sep 15
Last Quarter

Hourly Weather History & Observations

Time (CDT) Temp. Heat Index Dew Point Humidity Pressure Visibility Wind Dir Wind Speed Gust Speed Precip Events Conditions
12:53 AM 82.9 °F 85.0 °F 66.0 °F 56% 29.91 in 10.0 mi South 6.9 mph - N/A   Clear
1:53 AM 79.0 °F - 66.9 °F 66% 29.91 in 10.0 mi South 3.5 mph - N/A   Clear
2:53 AM 72.0 °F - 66.9 °F 84% 29.91 in 10.0 mi Calm Calm - N/A   Clear
3:53 AM 71.1 °F - 66.9 °F 87% 29.91 in 10.0 mi Calm Calm - N/A   Clear
4:53 AM 70.0 °F - 66.9 °F 90% 29.90 in 10.0 mi Calm Calm - N/A   Clear
5:53 AM 69.1 °F - 66.0 °F 90% 29.92 in 10.0 mi Calm Calm - N/A   Clear
6:53 AM 69.1 °F - 66.9 °F 93% 29.93 in 10.0 mi Calm Calm - N/A   Clear
7:53 AM 75.0 °F - 68.0 °F 79% 29.94 in 10.0 mi Calm Calm - N/A   Clear
8:53 AM 82.0 °F 85.5 °F 69.1 °F 65% 29.94 in 10.0 mi SSW 8.1 mph - N/A   Clear
9:53 AM 87.1 °F 91.3 °F 69.1 °F 55% 29.94 in 10.0 mi South 6.9 mph - N/A   Clear
10:53 AM 91.9 °F 96.9 °F 69.1 °F 47% 29.94 in 10.0 mi SSW 10.4 mph - N/A   Clear
11:53 AM 95.0 °F 99.0 °F 66.9 °F 40% 29.93 in 10.0 mi South 11.5 mph - N/A   Clear
12:53 PM 97.0 °F 100.4 °F 66.0 °F 36% 29.92 in 10.0 mi South 9.2 mph - N/A   Clear
1:53 PM 99.0 °F 100.5 °F 62.1 °F 30% 29.90 in 10.0 mi SW 10.4 mph - N/A   Clear
2:53 PM 100.9 °F 104.0 °F 64.0 °F 30% 29.90 in 10.0 mi SSW 12.7 mph 19.6 mph N/A   Clear
3:53 PM 100.9 °F 104.0 °F 64.0 °F 30% 29.88 in 10.0 mi South 11.5 mph 18.4 mph N/A   Clear
4:53 PM 100.0 °F 103.0 °F 64.0 °F 31% 29.86 in 10.0 mi South 12.7 mph - N/A   Clear
5:53 PM 99.0 °F 102.3 °F 64.9 °F 33% 29.86 in 10.0 mi South 11.5 mph - N/A   Clear
6:53 PM 97.0 °F 99.9 °F 64.9 °F 35% 29.86 in 10.0 mi SSE 11.5 mph - N/A   Clear
7:53 PM 93.0 °F 95.9 °F 66.0 °F 41% 29.86 in 10.0 mi South 9.2 mph - N/A   Clear
9:53 PM 89.1 °F 92.9 °F 68.0 °F 50% 29.91 in 10.0 mi South 8.1 mph - N/A   Clear
10:53 PM 87.1 °F 91.3 °F 69.1 °F 55% 29.93 in 10.0 mi South 5.8 mph - N/A   Clear
11:53 PM 81.0 °F 84.1 °F 69.1 °F 67% 29.94 in 10.0 mi SSW 3.5 mph - N/A   Clear